TimeCDT,TemperatureF,Dew PointF,Humidity,Sea Level PressureIn,VisibilityMPH,Wind Direction,Wind SpeedMPH,Gust SpeedMPH,PrecipitationIn,Events,Conditions,WindDirDegrees,DateUTC
12:15 AM,62.6,53.6,72,29.85,10.0,ESE,8.1,-,N/A,,Overcast,120,2013-04-08 05:15:00
12:35 AM,60.8,53.6,77,29.84,10.0,ESE,9.2,-,N/A,,Overcast,120,2013-04-08 05:35:00
12:55 AM,60.8,53.6,77,29.84,10.0,SE,6.9,-,N/A,,Overcast,130,2013-04-08 05:55:00
1:15 AM,60.8,53.6,77,29.84,10.0,SE,9.2,-,N/A,,Overcast,130,2013-04-08 06:15:00
1:35 AM,60.8,53.6,77,29.84,10.0,SE,9.2,-,N/A,,Overcast,140,2013-04-08 06:35:00
1:55 AM,59.0,53.6,82,29.83,10.0,SE,9.2,-,N/A,,Overcast,130,2013-04-08 06:55:00
2:15 AM,59.0,53.6,82,29.82,10.0,SE,9.2,-,N/A,,Overcast,130,2013-04-08 07:15:00
2:35 AM,59.0,53.6,82,29.80,10.0,SE,10.4,-,N/A,,Overcast,140,2013-04-08 07:35:00
2:55 AM,59.0,53.6,82,29.80,10.0,SE,8.1,-,N/A,,Overcast,130,2013-04-08 07:55:00
3:15 AM,59.0,53.6,82,29.80,10.0,ESE,5.8,-,N/A,,Overcast,120,2013-04-08 08:15:00
3:35 AM,59.0,53.6,82,29.79,10.0,SE,5.8,-,N/A,,Overcast,130,2013-04-08 08:35:00
3:55 AM,59.0,53.6,82,29.79,10.0,SE,9.2,-,N/A,,Overcast,140,2013-04-08 08:55:00
4:15 AM,59.0,53.6,82,29.78,10.0,SE,9.2,-,N/A,,Mostly Cloudy,140,2013-04-08 09:15:00
4:35 AM,59.0,53.6,82,29.78,10.0,SSE,8.1,-,N/A,,Mostly Cloudy,150,2013-04-08 09:35:00
4:55 AM,59.0,53.6,82,29.77,10.0,SSE,8.1,-,N/A,,Overcast,160,2013-04-08 09:55:00
5:15 AM,59.0,53.6,82,29.78,10.0,SSE,4.6,-,N/A,,Mostly Cloudy,160,2013-04-08 10:15:00
5:35 AM,59.0,53.6,82,29.78,10.0,SSE,6.9,-,N/A,Rain,Light Rain,150,2013-04-08 10:35:00
5:55 AM,59.0,53.6,82,29.80,10.0,WNW,5.8,-,N/A,Rain,Light Rain,290,2013-04-08 10:55:00
6:15 AM,57.2,55.4,94,29.81,5.0,East,3.5,-,0.01,Rain,Light Rain,90,2013-04-08 11:15:00
6:35 AM,57.2,55.4,94,29.81,6.0,SE,8.1,-,0.02,Rain,Light Rain,140,2013-04-08 11:35:00
6:48 AM,59.0,55.4,88,29.80,7.0,SSE,17.3,-,N/A,Rain-Thunderstorm,Light Thunderstorms and Rain,160,2013-04-08 11:48:00
7:58 AM,59.0,55.4,88,29.81,10.0,SSE,12.7,-,N/A,,Mostly Cloudy,160,2013-04-08 12:58:00
8:52 AM,60.8,57.2,88,29.81,10.0,South,13.8,-,N/A,,Mostly Cloudy,180,2013-04-08 13:52:00
9:48 AM,64.4,57.2,77,29.81,10.0,SSE,8.1,-,N/A,,Mostly Cloudy,150,2013-04-08 14:48:00
10:47 AM,68.0,55.4,64,29.83,10.0,South,8.1,-,N/A,,Overcast,180,2013-04-08 15:47:00
11:47 AM,69.8,55.4,60,29.85,10.0,WSW,8.1,-,N/A,,Overcast,240,2013-04-08 16:47:00
12:45 PM,68.0,57.2,68,29.83,10.0,South,12.7,21.9,N/A,,Mostly Cloudy,190,2013-04-08 17:45:00
1:45 PM,71.6,57.2,60,29.80,10.0,SSE,11.5,16.1,N/A,,Mostly Cloudy,150,2013-04-08 18:45:00
2:45 PM,71.6,57.2,60,29.79,10.0,South,12.7,-,N/A,,Mostly Cloudy,170,2013-04-08 19:45:00
3:46 PM,69.8,57.2,64,29.79,10.0,SSE,10.4,24.2,N/A,,Mostly Cloudy,160,2013-04-08 20:46:00
4:50 PM,66.2,57.2,73,29.80,10.0,South,9.2,18.4,N/A,,Overcast,170,2013-04-08 21:50:00
5:50 PM,68.0,57.2,68,29.80,10.0,SE,10.4,-,N/A,,Overcast,140,2013-04-08 22:50:00
6:50 PM,66.2,57.2,73,29.80,10.0,SE,6.9,-,N/A,,Overcast,130,2013-04-08 23:50:00
7:50 PM,66.2,57.2,73,29.80,10.0,SE,5.8,-,N/A,,Overcast,130,2013-04-09 00:50:00
8:45 PM,64.4,55.4,73,29.81,10.0,ESE,6.9,-,N/A,,Overcast,120,2013-04-09 01:45:00
9:15 PM,64.4,55.4,73,29.81,10.0,SE,8.1,-,N/A,,Partly Cloudy,130,2013-04-09 02:15:00
9:35 PM,64.4,57.2,77,29.81,10.0,SE,9.2,-,N/A,,Clear,130,2013-04-09 02:35:00
9:55 PM,64.4,57.2,77,29.81,10.0,ESE,9.2,-,N/A,,Clear,120,2013-04-09 02:55:00
10:15 PM,64.4,57.2,77,29.81,10.0,ESE,6.9,-,N/A,,Clear,120,2013-04-09 03:15:00
10:35 PM,64.4,57.2,77,29.81,10.0,SE,9.2,-,N/A,,Clear,130,2013-04-09 03:35:00
10:55 PM,64.4,57.2,77,29.80,10.0,ESE,10.4,-,N/A,,Clear,120,2013-04-09 03:55:00
11:15 PM,62.6,57.2,82,29.79,10.0,ESE,9.2,-,N/A,,Clear,120,2013-04-09 04:15:00
11:35 PM,62.6,57.2,82,29.79,10.0,ESE,10.4,-,N/A,,Clear,120,2013-04-09 04:35:00
11:55 PM,62.6,57.2,82,29.78,10.0,ESE,9.2,-,N/A,,Clear,110,2013-04-09 04:55:00